Regional Weather Roundup
Issued by NWS Wakefield, VA

Home | Current Version | Previous Version | Text Only | Print | Product List | Glossary Off
Versions: 1 2 3 4 5 6 7 8 9 10 11 12 13 14 15 16 17 18 19 20 21 22 23 24 25 26 27 28 29 30 31 32 33 34 35 36 37 38 39 40 41 42 43 44 45 46 47 48 49 50

000
ASUS41 KAKQ 300013
RWRAKQ
REGIONAL WEATHER ROUNDUP
NATIONAL WEATHER SERVICE WAKEFIELD VA
800 PM EDT SUN MAR 29 2015

Note: "fair" indicates few or no clouds below 12,000 feet with no
significant weather and/or obstructions to visibility. * = Denotes
station may not report precipitation (e.g., rain,snow,etc.),
thunder or fog.

VAZ042-051-052>054-056-300100-
NORTHERN VIRGINIA

CITY           SKY/WX    TMP DP  RH WIND       PRES   REMARKS
WASH NATIONAL  PTCLDY    44  12  27 S9        30.21F
DULLES         PTCLDY    41   7  24 S6        30.18F
FORT BELVOIR   CLEAR     40  11  30 SE3       30.20F
QUANTICO       PTCLDY    45  23  42 S12       30.22F
FREDERICKSBRG* PTCLDY    43  12  28 S7        30.21F
STAFFORD*      PTCLDY    41   1  18 S5        30.25S
WARRENTON      PTCLDY    42  17  36 SE5       30.17F
CULPEPER*      PTCLDY    43  10  26 S3        30.18F
MANASSAS*      CLEAR     39  12  33 S5        30.19F
LEESBURG*      PTCLDY    45  14  29 S9        30.18F
WINCHESTER     PTCLDY    43  -6  13 S8        30.13S
FRONT ROYAL*   FAIR      43   9  24 S5        30.13S
LURAY*         FAIR      45  14  29 SW5       30.14S
$$

VAZ048-049-060>072-079>083-300100-
CENTRAL AND SOUTH CENTRAL VIRGINIA

CITY           SKY/WX    TMP DP  RH WIND       PRES   REMARKS
RICHMOND       MOCLDY    40  14  34 S7        30.24F
CHESTERFIELD*  NOT AVBL
PETERSBURG*    PTCLDY    35  21  58 S3        30.26F
HANOVER        PTCLDY    38  13  35 S5        30.25F
TAPPAHANNOCK*  PTCLDY    40   3  21 S3        30.25F
QUINTON*       FAIR      43  10  26 CALM      30.25F
CHARLOTTSVILLE PTCLDY    44   8  23 S10       30.18F
GORDONSVILLE*  FAIR      42   8  24 S5        30.18F
ORANGE*        PTCLDY    43   9  24 SE3       30.20F
LOUISA*        PTCLDY    43   9  24 S3        30.19F
BUMPASS*       FAIR      42   5  21 CALM      30.21F
FARMVILLE*     PTCLDY    44  11  26 S3        30.20F
CREWE*         FAIR      39  13  34 MISG      30.22F
FORT PICKETT*  FAIR      40  15  37 S6        30.23F
CHASE CITY*    FAIR      44  20  39 CALM      30.23F
CLARKSVILLE*   FAIR      41  18  38 S3        30.24F
SOUTH HILL*    PTCLDY    38  20  50 CALM      30.31F
LAWRENCEVILLE* FAIR      41  16  36 CALM      30.26F
EMPORIA*       PTCLDY    36  23  60 CALM      30.30S
$$

VAZ088>098-300100-
SOUTHEAST VIRGINIA

CITY           SKY/WX    TMP DP  RH WIND       PRES   REMARKS
NORFOLK        CLEAR     42  11  28 CALM      30.28F
VIRGINIA BEACH PTCLDY    37  18  46 E6        30.28F
NORFOLK NAVAL  NOT AVBL
WEST POINT*    CLEAR     41  14  34 CALM      30.28F
SALUDA*        FAIR      36  23  58 S7        30.27S
NEWPORT NEWS   CLEAR     44  10  25 SW3       30.28
LANGLEY AFB    CLEAR     39  22  50 SE5       30.27F
FORT EUSTIS    CLEAR     39  19  45 S1        30.25F
WILLIAMSBURG*  CLEAR     41  21  45 CALM      30.27F
HR EXEC AP*    FAIR      34  19  55 CALM      30.30F
FRANKLIN*      CLEAR     42  14  31 CALM      30.29S
WAKEFIELD      CLEAR     37  19  48 CALM      30.28F
$$

VAZ020-022-025-037-045-300100-
WEST CENTRAL AND SOUTHWEST VIRGINIA

CITY           SKY/WX    TMP DP  RH WIND       PRES   REMARKS
STAUNTON*      MOCLDY    43   6  21 S9        30.16R
WAYNESBORO*    FAIR      41   7  24 S8        30.15S
HOT SPRINGS VA MOCLDY    36   2  24 S9        30.07S
LYNCHBURG      PTCLDY    42  10  27 S8        30.21F
DANVILLE       PTCLDY    45  11  25 S3        30.23F
SOUTH BOSTON*  FAIR      44   8  23 S3        30.23F
MARTINSVILLE   PTCLDY    47  10  22 SW7       30.22F
ROANOKE        PTCLDY    46   8  21 SE12      30.18F
BLACKSBURG     MOCLDY    43   9  24 S9G16     30.16F
DUBLIN*        MOCLDY    45  13  27 S3        30.15F
MARION*        PTCLDY    47   6  18 S3        30.14F
HILLSVILLE*    PTCLDY    42  13  31 S8        30.14F
RICHLANDS*     FAIR      46 -42   2 S6        30.08F
WISE*          PTCLDY    46   0  14 S14       30.10S
ABINGDON*      PTCLDY    49   7  18 W3        30.11F
$$

MDZ021>025-VAZ099-100-300100-
SOUTHERN MARYLAND AND THE DELMARVA PENINSULA

CITY           SKY/WX    TMP DP  RH WIND       PRES   REMARKS
PATUXENT RIVER CLEAR     38   9  30 S6        30.22F
BAY BRIDGE APT   N/A     39  16  38 S7        30.22S
LEONARDTOWN    CLEAR     37   9  30 S3        30.24F
DOVER          CLEAR     37  16  42 S7        30.21R
GEORGETOWN     CLEAR     37  14  38 CALM      30.24F
EASTON         PTCLDY    39  16  38 S6        30.26F
CAMBRIDGE      CLEAR     37  14  38 S7        30.23F
SALISBURY      CLEAR     34  18  52 S7        30.25F
OCEAN CITY     CLEAR     36  25  64 S6        30.26F
WALLOPS ISLAND CLEAR     36  11  35 W5        30.28S
ACCOMACK*      CLEAR     32  14  47 CALM      30.27F
$$

NCZ012>017-030>032-300100-
NORTH CENTRAL AND EASTERN NORTH CAROLINA

CITY           SKY/WX    TMP DP  RH WIND       PRES   REMARKS
ROANOKE RAPIDS FAIR      37  21  52 CALM      30.29S
RALEIGH        PTCLDY    46  14  27 S5        30.28F
ELIZABETH CITY CLEAR     41  17  38 S3        30.31S
AHOSKIE*       PTCLDY    37  26  65 CALM      30.30F
EDENTON*       CLEAR     44  16  32 W3        30.31F
CURRITUCK*     CLEAR     38  23  54 CALM      30.32S
KILL DEVIL HLS CLEAR     35  22  59 CALM      30.31S
MANTEO         CLEAR     36  23  60 CALM      30.33S
CAPE HATTERAS  CLEAR     34  23  64 E6        30.35R
TARBORO*       FAIR      45  18  34 CALM      30.32R
GOLDSBORO      CLEAR     44  19  36 S3        30.29F
WASHINGTON     CLEAR     44  16  32 SW3       30.32F
GREENVILLE     CLEAR     43  19  39 CALM      30.32F
NEW BERN       CLEAR     39  22  50 CALM      30.33F
WILMINGTON     CLEAR     45  26  47 CALM      30.33F
$$

VAZ048-300100-
ELSEWHERE

CITY           SKY/WX    TMP DP  RH WIND       PRES   REMARKS
HARRISBURG PA  PTCLDY    41  11  29 S8        30.13F
BALTIMORE      PTCLDY    40   6  24 CALM      30.19S
ANNAPOLIS      CLEAR     38  21  50 S12       30.21F
ANDREWS AFB    CLEAR     38  12  34 S6        30.19F
PHILADELPHIA   PTCLDY    42  10  27 SW6       30.19F
HENDERSON NC   CLEAR     44   9  24 S5        30.25F
GREENSBORO     MOCLDY    47  11  23 SW8       30.22F
ROCKY MOUNT    CLEAR     40  26  57 CALM      30.30F
$$

VAZ100-300100-
MARINE

STATION/POSITION TIME  TEMP    WIND        PRES    WAVE   SWELL
                       AIR SEA DIR/SP/G            HT/PER HT/PER
                 (UTC) (F)     (DEG/KT/KT) (MB)    (FT/S) (FT/S)
BRANDYWINE LGT   2300   40 40  270/ 13/ 14 1024.1F
CAPE MAY NJ      2300      43  290/  3/  4 1023.8F
LEWES DE         2300   41 42  290/ 11/ 12 1024.3S
15NM E FENWICK I 2350   37 40              1024.5S   3/10
OCEAN-CITY-INLET 2312          190/  5/  8 1024.6F
WACHAPREAGUE VA  2300   40 45  350/  2/  3 1025.4F
THOMAS POINT MD  0000                        N/A
COVE POINT MD    2300   37     170/ 10/ 11 1024.2F
SOLOMONS ISLAND  2300      44                N/A
BISHOPS HEAD MD  2300   40 45  170/  2/  3 1024.3F
PINEY POINT MD   2312             CALM       N/A
CAMBRIDGE MD     2300      42   CALM  /  1 1024.1F
LEWISETTA VA     2300   41 45              1024.5F
RAPPAHANNOCK LGT 2300          200/  2/  2 1026.0F
STINGRAY PT      0000   39 45  160/  8/ 12   N/A     1
YORK RVR RNG VA  2300          150/  9/ 10 1025.1S
YORKTOWN VA      2312   44 45  240/  6/  7 1025.0F
DOMINION TERM VA 2300   45     310/  5/  6 1025.9R
KIPTOPEKE VA     2300      48  150/  2/  4   N/A
CHES BAY BRIDGE  2312          100/  3/  6 1025.4R
CAPE HENRY VA    2300   40      20/  2/  2 1024.5R
CHESAPEAKE LGHT  2300   38      50/  2/  3 1026.7S
WILLOUBY STN VA  2300   44     260/  7/  9 1026.1R
S CRANEY ISL VA  2300          320/  3/  4 1025.9R
CAPE HENRY BUOY  2328      40                N/A     2/10
1ST LANDING BUOY 0000   39     120/  6/  8 1025.0F   1/ 4
OFFSHORE WE BUOY 2311      41                N/A     4/ 6   3/ 6
64NM E OF VA BCH 2350   39 54  320/ 10/ 16 1025.9R   5/ 9   3/ 9
DUCK PIER NC     2300      43  140/  6/  7 1025.8S
44056 DUCK FRF   2311      42                N/A     3/ 6
OREGON INLET NC  2300   37 45   30/  4/  5 1026.8R
HATTERAS NC      2312          320/  4/  7 1027.7R
CAPE LOOKOUT NC  0000   44     240/  2/  2 1027.1F
$$


USA.gov is the U.S. government's official web portal to all federal, state and local government web resources and services.